Date String (YYYY-MM-DD hh:mm:ss) UTC,Instrument flags,Ambient pressure (hPa),Sample flow (lpm),Bypass flow (lpm),Sample temperature (°C),Ambient temperature (°C),ASC tube jacket temperature (°C),LED temperature (°C),Box temperature (°C),Sample RH (%),Span deviation,Mass concentration (μg/m³),Mass concentration (μg/m³),Mass concentration (μg/m³)
DateTimeUTC,F1_M11,P_M11,Q1_M11,Q2_M11,T1_M11,T2_M11,T3_M11,T4_M11,T5_M11,U1_M11,ZSPAN_M11,X2_M11,X0_M11,X1_M11
2022-02-21 16:00:00,,0811.7,4.99,0.00,22.3,21.8,00.0,31.2,24.1,07.6,0000.0,0001.31,0003.78,0000.79
2022-02-21 16:01:00,,0811.7,4.99,0.00,22.3,21.8,00.0,31.2,24.1,07.5,0000.0,0001.31,0003.75,0000.79
2022-02-21 16:02:00,,0811.7,4.99,0.00,22.3,21.8,00.0,31.2,24.1,07.4,0000.0,0001.30,0003.79,0000.77
2022-02-21 16:03:00,,0811.7,5.00,0.00,22.3,21.9,00.0,31.3,24.2,07.6,0000.0,0001.30,0003.81,0000.77
2022-02-21 16:04:00,,0811.7,5.00,0.00,22.3,21.9,00.0,31.3,24.1,07.4,0000.0,0001.26,0003.64,0000.77
2022-02-21 16:05:00,,0811.7,5.00,0.00,22.4,21.9,00.0,31.3,24.2,07.5,0000.0,0001.23,0003.49,0000.76
2022-02-21 16:06:00,,0811.7,5.00,0.00,22.4,21.9,00.0,31.3,24.2,07.5,0000.0,0001.23,0003.45,0000.77
2022-02-21 16:07:00,,0811.7,5.00,0.00,22.4,21.9,00.0,31.3,24.2,07.5,0000.0,0001.21,0003.17,0000.76
2022-02-21 16:08:00,,0811.7,5.02,0.00,22.4,21.9,00.0,31.3,24.2,07.5,0000.0,0001.20,0003.07,0000.75
2022-02-21 16:09:00,,0811.7,4.99,0.00,22.4,21.9,00.0,31.3,24.3,07.8,0000.0,0001.21,0002.93,0000.74
2022-02-21 16:10:00,,0811.7,5.00,0.00,22.4,21.9,00.0,31.3,24.3,07.6,0000.0,0001.21,0002.33,0000.74
2022-02-21 16:11:00,,0811.6,4.99,0.00,22.4,21.9,00.0,31.3,24.3,07.5,0000.0,0001.19,0002.35,0000.74
2022-02-21 16:12:00,,0811.6,4.99,0.00,22.4,22.0,00.0,31.4,24.3,07.6,0000.0,0001.16,0002.27,0000.73
2022-02-21 16:13:00,,0811.5,5.00,0.00,22.5,22.0,00.0,31.4,24.3,07.6,0000.0,0001.14,0002.42,0000.73
2022-02-21 16:14:00,,0811.5,5.01,0.00,22.5,22.0,00.0,31.4,24.3,07.7,0000.0,0001.17,0002.79,0000.73
2022-02-21 16:15:00,,0811.5,4.99,0.00,22.5,22.0,00.0,31.4,24.3,07.6,0000.0,0001.20,0002.88,0000.73
2022-02-21 16:16:00,,0811.5,4.99,0.00,22.5,22.0,00.0,31.4,24.3,07.4,0000.0,0001.24,0003.56,0000.73
2022-02-21 16:17:00,,0811.5,5.00,0.00,22.5,22.0,00.0,31.4,24.3,07.5,0000.0,0001.26,0003.80,0000.72
2022-02-21 16:18:00,,0811.5,5.02,0.00,22.5,22.0,00.0,31.4,24.4,07.8,0000.0,0001.26,0003.85,0000.71
2022-02-21 16:19:00,,0811.5,5.00,0.00,22.6,22.1,00.0,31.4,24.4,07.6,0000.0,0001.27,0003.90,0000.72
2022-02-21 16:20:00,,0811.5,5.00,0.00,22.6,22.1,00.0,31.5,24.5,07.6,0000.0,0001.25,0004.00,0000.71
2022-02-21 16:21:00,,0811.5,4.99,0.00,22.6,22.1,00.0,31.5,24.5,07.4,0000.0,0001.26,0004.10,0000.71
2022-02-21 16:22:00,,0811.5,4.99,0.00,22.6,22.1,00.0,31.5,24.5,07.6,0000.0,0001.26,0004.07,0000.72
2022-02-21 16:23:00,,0811.4,5.01,0.00,22.6,22.1,00.0,31.5,24.5,07.5,0000.0,0001.31,0004.50,0000.71
2022-02-21 16:24:00,,0811.4,5.00,0.00,22.7,22.2,00.0,31.5,24.5,07.4,0000.0,0001.33,0004.27,0000.71
2022-02-21 16:25:00,,0811.4,4.99,0.00,22.7,22.2,00.0,31.5,24.5,07.3,0000.0,0001.28,0003.92,0000.70
2022-02-21 16:26:00,,0811.4,5.02,0.00,22.7,22.2,00.0,31.5,24.5,07.2,0000.0,0001.22,0003.74,0000.70
2022-02-21 16:27:00,,0811.4,5.00,0.00,22.7,22.2,00.0,31.6,24.5,07.4,0000.0,0001.19,0003.07,0000.70
2022-02-21 16:28:00,,0811.4,4.99,0.00,22.7,22.2,00.0,31.6,24.5,07.3,0000.0,0001.15,0002.76,0000.69
2022-02-21 16:29:00,,0811.3,5.00,0.00,22.7,22.2,00.0,31.6,24.5,07.4,0000.0,0001.19,0002.78,0000.70
2022-02-21 16:30:00,,0811.4,5.02,0.00,22.7,22.2,00.0,31.6,24.5,07.1,0000.0,0001.14,0003.33,0000.69
2022-02-21 16:31:00,,0811.4,4.99,0.00,22.7,22.2,00.0,31.6,24.6,07.1,0000.0,0001.15,0003.55,0000.69
2022-02-21 16:32:00,,0811.4,4.99,0.00,22.8,22.2,00.0,31.6,24.6,07.2,0000.0,0001.18,0003.64,0000.69
2022-02-21 16:33:00,,0811.4,5.01,0.00,22.8,22.3,00.0,31.6,24.6,07.4,0000.0,0001.16,0004.36,0000.69
2022-02-21 16:34:00,,0811.4,4.99,0.00,22.8,22.3,00.0,31.7,24.6,07.1,0000.0,0001.16,0004.49,0000.69
2022-02-21 16:35:00,,0811.4,5.01,0.00,22.8,22.3,00.0,31.7,24.6,07.1,0000.0,0001.16,0004.51,0000.69
2022-02-21 16:36:00,,0811.4,5.00,0.00,22.8,22.3,00.0,31.7,24.7,07.3,0000.0,0001.23,0004.66,0000.70
2022-02-21 16:37:00,,0811.4,5.00,0.00,22.8,22.3,00.0,31.7,24.7,06.9,0000.0,0001.29,0005.02,0000.71
2022-02-21 16:38:00,,0811.4,4.99,0.00,22.9,22.4,00.0,31.7,24.7,07.2,0000.0,0001.31,0005.11,0000.71
2022-02-21 16:39:00,,0811.3,4.99,0.00,22.9,22.4,00.0,31.7,24.8,07.2,0000.0,0001.34,0005.21,0000.71
2022-02-21 16:40:00,,0811.3,5.02,0.00,22.9,22.4,00.0,31.8,24.8,06.9,0000.0,0001.29,0005.41,0000.70
2022-02-21 16:41:00,,0811.3,4.99,0.00,23.0,22.4,00.0,31.8,24.8,07.0,0000.0,0001.30,0005.11,0000.70
2022-02-21 16:42:00,,0811.3,4.99,0.00,23.0,22.5,00.0,31.8,24.9,07.0,0000.0,0001.31,0004.63,0000.70
2022-02-21 16:43:00,,0811.3,4.99,0.00,23.0,22.5,00.0,31.8,24.9,07.0,0000.0,0001.32,0004.68,0000.70
2022-02-21 16:44:00,,0811.3,5.00,0.00,23.0,22.5,00.0,31.8,24.9,07.0,0000.0,0001.32,0004.01,0000.70
2022-02-21 16:45:00,,0811.3,5.01,0.00,23.1,22.6,00.0,31.8,24.9,07.0,0000.0,0001.30,0003.62,0000.71
2022-02-21 16:46:00,,0811.3,4.99,0.00,23.1,22.6,00.0,31.9,25.0,07.1,0000.0,0001.30,0003.58,0000.72
2022-02-21 16:47:00,,0811.2,4.99,0.00,23.1,22.6,00.0,31.9,25.0,07.1,0000.0,0001.25,0003.38,0000.71
2022-02-21 16:48:00,,0811.2,5.01,0.00,23.2,22.6,00.0,31.9,25.0,07.3,0000.0,0001.20,0003.24,0000.71
2022-02-21 16:49:00,,0811.2,4.99,0.00,23.2,22.7,00.0,32.0,25.1,07.2,0000.0,0001.21,0004.09,0000.71
2022-02-21 16:50:00,,0811.2,5.01,0.00,23.2,22.7,00.0,32.0,25.1,07.5,0000.0,0001.19,0004.07,0000.71
2022-02-21 16:51:00,,0811.2,5.00,0.00,23.3,22.7,00.0,32.0,25.1,07.8,0000.0,0001.19,0003.91,0000.70
2022-02-21 16:52:00,,0811.2,4.99,0.00,23.3,22.7,00.0,32.0,25.1,07.6,0000.0,0001.27,0004.20,0000.71
2022-02-21 16:53:00,,0811.2,5.00,0.00,23.3,22.7,00.0,32.1,25.2,07.1,0000.0,0001.32,0004.34,0000.72
2022-02-21 16:54:00,,0811.1,4.99,0.00,23.3,22.8,00.0,32.1,25.2,07.2,0000.0,0001.29,0004.14,0000.71
2022-02-21 16:55:00,,0811.1,5.01,0.00,23.3,22.8,00.0,32.1,25.2,07.1,0000.0,0001.28,0004.15,0000.71
2022-02-21 16:56:00,,0811.1,5.00,0.00,23.4,22.8,00.0,32.2,25.2,06.8,0000.0,0001.31,0004.59,0000.70
2022-02-21 16:57:00,,0811.1,4.99,0.00,23.4,22.8,00.0,32.2,25.2,06.9,0000.0,0001.30,0005.27,0000.69
2022-02-21 16:58:00,,0811.1,5.00,0.00,23.4,22.8,00.0,32.2,25.2,07.0,0000.0,0001.26,0005.20,0000.69
2022-02-21 16:59:00,,0811.0,5.01,0.00,23.4,22.8,00.0,32.2,25.2,06.8,0000.0,0001.29,0005.04,0000.69
